Wind_Speed
10 9 9 9 9 9 9 10 11 11 12 12 11 11 12 12 12 12 11 12 12 11 11 11 12 13 15 16 16 17 17 17 17 18 19 19 19 19 19 19 19 20 21
12 11 10 10 11 11 10 11 12 13 13 13 13 13 13 13 14 14 13 12 12 12 12 13 13 14 14 15 16 16 16 17 17 18 18 20 20 21 20 20 20 21 21
13 13 12 12 12 13 13 13 14 14 14 15 15 15 15 14 14 14 14 15 15 14 14 14 15 15 15 16 16 16 17 17 18 19 19 21 21 21 21 22 22 23 24
15 14 14 14 14 15 15 16 17 17 17 17 16 17 17 17 16 16 16 16 16 16 16 16 16 16 16 17 17 17 18 18 19 20 21 21 22 22 22 23 24 24 25
17 17 16 17 17 17 18 18 19 19 19 18 18 18 18 18 18 18 17 17 18 18 18 18 17 18 18 18 19 19 20 20 21 21 22 22 23 23 24 25 25 25 25
20 19 20 20 20 20 20 20 21 20 20 20 19 19 19 20 20 19 19 18 18 19 19 20 20 20 20 21 21 21 22 23 23 23 24 24 25 25 25 26 26 25 25
23 22 22 23 23 23 22 22 22 22 23 22 21 21 21 21 22 21 21 21 21 20 21 21 22 22 23 23 24 23 24 25 25 25 25 26 26 26 27 27 27 27 27
25 26 25 25 25 24 24 24 25 25 26 25 24 24 23 23 23 23 23 24 24 24 23 24 25 25 26 26 26 26 26 26 26 27 27 28 28 28 28 28 28 29 29
28 27 27 27 27 27 27 27 27 27 28 26 26 25 25 25 25 25 25 26 26 26 26 26 27 27 28 28 28 27 28 28 28 28 29 28 28 28 28 29 30 30 31
30 29 29 30 30 30 30 30 29 30 29 29 27 26 26 27 27 27 27 27 27 28 28 29 29 29 29 29 29 30 30 30 30 29 29 30 30 30 30 31 32 33 33
34 33 32 33 32 32 32 32 31 30 29 28 28 28 29 28 27 27 28 28 29 30 30 30 31 31 30 30 31 31 31 31 31 31 31 32 32 33 33 33 34 34 35
36 36 36 35 34 35 34 34 34 32 31 30 29 28 29 28 27 28 28 29 30 31 31 31 31 32 31 30 31 31 32 32 32 33 33 34 34 35 35 35 35 36 36
37 38 38 38 37 36 36 35 35 34 32 30 30 29 29 29 29 29 30 30 30 31 32 32 32 32 33 33 33 34 34 35 34 35 35 36 36 37 36 36 37 37 37
40 40 41 40 40 39 37 37 35 35 33 32 30 31 31 31 31 31 31 31 31 32 32 32 33 34 35 35 36 36 36 36 36 37 37 37 38 37 37 37 37 38 38
42 42 42 41 40 40 39 38 37 36 35 34 33 34 34 33 33 33 34 34 34 34 34 34 35 35 36 37 37 37 37 37 38 38 39 40 39 39 39 39 39 39 39
42 42 41 40 40 39 39 39 38 38 37 36 36 36 36 36 36 36 36 36 37 37 37 37 37 37 37 38 39 39 39 39 40 40 41 41 41 41 42 41 41 40 40
40 40 39 39 40 39 39 39 39 38 37 36 36 37 37 38 38 38 37 38 38 38 38 38 37 37 38 38 39 39 39 40 41 42 41 41 42 42 42 42 41 41 41
40 39 40 41 41 40 39 39 40 39 39 38 37 38 38 38 38 38 38 39 39 39 38 38 37 38 39 40 40 40 41 42 42 41 41 42 43 43 43 42 41 41 41
40 40 41 42 42 41 40 40 40 40 40 40 39 39 37 37 39 39 38 39 39 38 38 38 39 39 40 40 40 41 42 42 42 43 43 43 43 43 43 42 42 41 41
41 41 42 42 41 41 42 41 41 41 40 40 40 39 39 38 39 39 39 39 40 39 38 38 39 40 40 41 41 42 43 42 43 43 43 43 43 43 42 41 41 41 40
39 40 40 40 39 40 40 39 39 38 38 39 39 39 38 38 37 37 37 37 38 38 38 38 39 39 40 40 40 41 41 42 43 43 43 42 42 41 41 41 40 40 40
36 37 37 37 37 38 37 36 37 37 37 38 37 36 36 36 36 36 36 36 36 37 37 37 38 38 39 38 39 39 40 41 41 41 41 41 41 41 40 40 40 41 41
35 35 35 35 35 34 34 34 35 35 36 36 36 36 36 35 36 36 36 36 36 36 37 37 37 37 37 38 38 39 40 40 40 40 40 39 39 39 39 39 39 40 41
33 33 33 33 34 34 34 33 33 33 34 35 35 34 34 34 35 36 36 36 36 36 36 36 36 37 37 37 38 38 39 39 39 38 38 38 38 37 37 38 38 39 39
31 31 32 31 32 32 31 32 32 32 33 32 32 31 32 33 33 33 33 33 34 34 35 35 35 35 35 36 36 36 36 37 37 37 37 36 36 36 36 37 37 38 38
28 28 28 28 28 29 30 31 30 30 30 30 30 30 30 30 30 30 30 31 32 32 33 33 33 33 34 34 35 35 35 35 35 35 35 35 35 35 35 36 35 36 36
Wind_Direction
297 298 302 304 308 309 310 315 319 319 316 311 308 307 304 303 302 300 295 291 287 287 291 294 294 291 292 293 292 291 289 286 285 286 286 288 289 289 287 287 287 285 283
293 291 294 296 299 302 305 308 312 316 316 313 308 303 301 299 300 298 293 290 287 288 290 291 293 296 296 297 297 296 294 291 288 288 288 288 287 288 287 286 285 286 286
290 287 288 291 293 295 299 303 306 310 311 310 308 304 302 300 298 300 297 290 286 285 287 290 292 294 296 298 299 299 297 295 290 288 289 288 288 288 287 288 287 284 283
286 288 287 287 289 290 294 298 301 304 302 301 303 304 300 298 294 293 296 293 287 285 286 288 290 292 294 295 297 298 297 296 294 293 291 290 290 289 287 288 289 286 284
283 283 283 284 285 287 290 293 297 299 302 298 299 302 297 297 295 289 290 290 286 284 284 285 286 288 291 292 293 295 296 296 295 294 293 293 293 290 288 287 288 287 287
277 279 280 281 283 285 287 288 291 293 295 297 294 294 294 294 296 292 286 286 286 285 284 283 283 285 288 289 290 292 294 295 294 293 293 292 292 291 290 291 291 289 289
273 275 276 278 282 284 286 288 288 289 291 292 292 292 291 290 290 289 283 280 281 284 284 283 284 284 286 288 288 289 293 295 294 292 291 292 291 290 289 290 288 288 289
273 274 274 276 279 282 284 286 285 285 287 286 288 290 288 288 287 287 283 280 278 280 282 283 283 283 284 284 285 287 290 292 292 292 291 291 291 291 292 291 289 288 288
274 275 275 275 276 277 280 282 283 282 284 283 286 286 285 284 286 285 283 283 280 277 278 281 282 281 281 282 283 286 288 289 290 291 291 291 291 291 291 291 290 289 289
272 273 274 276 276 278 280 279 279 281 280 280 282 284 286 284 285 287 284 281 280 277 277 279 280 281 281 280 281 284 285 287 288 289 290 291 292 293 292 291 291 291 290
271 272 273 275 277 278 279 280 278 278 281 282 281 283 286 286 287 286 284 283 280 278 277 279 280 280 281 280 281 282 284 285 287 289 290 290 291 292 292 291 291 291 291
270 271 273 274 275 276 277 278 279 282 280 281 282 283 287 288 287 284 282 283 281 279 278 280 282 281 281 281 281 283 283 285 286 288 289 289 290 291 292 291 291 291 290
268 270 273 275 276 278 278 278 279 280 281 281 282 283 286 288 286 283 282 281 280 281 282 283 283 282 281 282 281 281 281 283 284 286 287 288 289 291 291 290 290 290 289
268 270 271 273 276 277 276 278 281 280 279 280 281 283 284 284 284 283 282 281 281 281 282 282 283 282 281 281 282 281 281 283 284 285 286 287 288 289 289 289 289 290 289
269 270 271 273 275 276 278 279 281 282 280 279 279 280 281 281 282 282 281 280 280 281 281 281 280 280 280 281 281 282 282 284 284 285 286 288 288 289 289 289 289 289 288
269 269 270 273 274 276 278 278 279 281 279 277 277 276 277 279 279 280 281 282 282 281 280 280 280 280 280 280 280 280 281 282 283 283 285 286 286 287 288 288 288 287 287
267 267 269 271 272 274 276 277 278 279 276 274 275 276 276 278 279 280 280 282 281 280 279 278 278 279 281 281 281 281 281 282 282 283 284 285 286 286 287 288 288 287 287
265 266 269 271 271 273 275 276 276 275 275 275 276 277 277 278 278 279 279 281 280 278 276 276 277 279 279 280 281 282 282 282 283 284 285 286 286 287 287 287 287 287 287
265 266 268 270 271 272 274 275 274 273 274 276 276 276 276 277 278 279 279 280 279 277 277 277 278 279 279 279 280 282 283 284 285 285 285 286 286 287 286 286 287 287 286
264 266 268 270 271 272 274 275 274 272 273 275 276 276 275 277 278 279 280 280 281 280 279 279 280 281 280 280 281 282 283 284 284 284 284 284 285 285 285 286 287 287 287
266 267 269 270 272 272 273 272 272 272 273 274 275 275 275 276 278 279 280 281 281 281 282 282 281 280 280 281 282 283 284 285 285 284 283 283 284 285 286 286 286 287 288
267 268 270 270 270 271 271 270 270 272 273 274 275 276 277 277 278 279 281 281 282 282 283 283 284 284 283 283 283 283 284 284 284 285 285 283 284 285 286 286 287 287 288
269 270 270 269 269 269 270 271 271 272 274 275 275 277 277 277 278 279 280 281 282 283 284 285 285 286 285 285 285 286 285 285 286 286 286 285 285 285 286 287 288 288 289
270 270 271 271 271 271 271 272 273 274 275 275 277 277 277 278 279 280 280 281 282 283 284 285 286 287 286 286 286 287 287 287 287 287 286 286 286 287 287 287 288 288 289
270 270 270 271 272 272 272 273 274 275 276 276 276 277 278 279 280 281 282 283 284 284 285 286 287 287 287 287 287 288 288 290 289 287 287 288 288 288 289 289 290 290 290
267 267 268 271 273 274 275 275 276 276 276 276 277 278 279 280 282 282 282 284 286 287 287 287 288 288 288 289 289 289 290 290 290 290 290 289 289 289 290 291 291 292 293
Height
5897 5896 5894 5893 5891 5890 5889 5888 5886 5885 5883 5882 5880 5879 5877 5876 5875 5874 5872 5871 5870 5870 5869 5868 5867 5866 5865 5864 5863 5862 5860 5858 5857 5857 5855 5854 5852 5851 5850 5849 5847 5846 5845
5894 5893 5892 5891 5889 5888 5887 5885 5884 5882 5881 5879 5878 5876 5874 5873 5872 5871 5869 5868 5867 5866 5865 5865 5864 5863 5862 5860 5859 5857 5856 5854 5853 5852 5851 5849 5847 5846 5845 5843 5842 5841 5839
5891 5890 5889 5888 5886 5885 5884 5882 5881 5879 5878 5876 5875 5873 5871 5870 5868 5867 5866 5864 5863 5862 5861 5861 5860 5859 5858 5856 5855 5853 5852 5850 5849 5847 5846 5844 5842 5840 5839 5838 5836 5835 5833
5887 5886 5885 5884 5883 5882 5881 5879 5878 5876 5874 5872 5871 5870 5868 5866 5864 5863 5861 5860 5859 5858 5857 5856 5855 5854 5853 5852 5850 5849 5847 5845 5844 5842 5840 5839 5837 5835 5833 5832 5830 5828 5827
5884 5883 5881 5880 5879 5878 5876 5875 5874 5872 5870 5868 5867 5865 5863 5862 5860 5859 5857 5855 5854 5853 5852 5851 5850 5849 5848 5847 5846 5844 5842 5840 5839 5837 5835 5833 5831 5829 5828 5826 5824 5822 5820
5878 5877 5876 5875 5874 5873 5872 5870 5869 5867 5865 5863 5862 5860 5858 5857 5855 5853 5852 5850 5849 5848 5847 5846 5845 5844 5843 5841 5840 5838 5837 5835 5833 5831 5829 5827 5825 5823 5821 5819 5817 5816 5814
5872 5871 5870 5870 5869 5868 5866 5865 5863 5861 5859 5857 5856 5854 5853 5851 5849 5847 5846 5845 5844 5842 5841 5840 5839 5838 5837 5835 5834 5832 5830 5829 5827 5825 5823 5821 5818 5816 5814 5812 5810 5808 5806
5865 5864 5864 5864 5863 5861 5860 5859 5857 5855 5854 5851 5849 5847 5846 5844 5843 5841 5839 5838 5837 5836 5835 5834 5832 5831 5830 5828 5827 5825 5824 5822 5820 5818 5816 5814 5811 5809 5807 5805 5803 5801 5799
5858 5857 5857 5856 5855 5854 5853 5851 5849 5848 5846 5844 5842 5840 5839 5837 5836 5834 5832 5831 5830 5829 5828 5826 5825 5823 5822 5821 5820 5818 5816 5815 5813 5810 5808 5806 5804 5801 5799 5797 5795 5793 5791
5850 5850 5849 5848 5847 5846 5845 5843 5842 5840 5838 5836 5835 5833 5831 5830 5828 5827 5825 5823 5822 5820 5819 5818 5817 5816 5814 5813 5812 5810 5808 5807 5805 5803 5800 5798 5796 5793 5791 5789 5787 5785 5782
5841 5840 5840 5839 5838 5837 5836 5835 5832 5831 5829 5826 5827 5825 5824 5821 5820 5818 5817 5815 5814 5812 5811 5809 5808 5807 5806 5804 5803 5801 5800 5798 5796 5794 5792 5790 5788 5785 5783 5780 5778 5776 5773
5832 5831 5831 5830 5829 5828 5827 5825 5824 5822 5821 5819 5817 5816 5815 5813 5811 5810 5809 5807 5806 5804 5802 5801 5800 5799 5797 5796 5794 5793 5791 5789 5787 5785 5783 5781 5779 5776 5774 5771 5769 5766 5763
5822 5821 5821 5820 5819 5818 5817 5815 5814 5814 5812 5810 5809 5808 5807 5804 5803 5802 5801 5799 5798 5796 5794 5792 5791 5790 5788 5787 5785 5783 5781 5779 5778 5776 5774 5771 5769 5766 5764 5761 5758 5756 5753
5811 5811 5810 5810 5809 5808 5806 5805 5804 5802 5801 5800 5799 5799 5798 5796 5795 5793 5791 5790 5789 5787 5785 5783 5782 5780 5779 5777 5775 5773 5771 5770 5767 5765 5763 5761 5758 5756 5753 5750 5748 5745 5742
5800 5799 5799 5798 5798 5797 5796 5795 5793 5792 5790 5790 5789 5789 5787 5786 5785 5784 5781 5780 5778 5777 5775 5773 5771 5769 5768 5766 5764 5763 5761 5759 5757 5755 5752 5750 5748 5745 5742 5739 5737 5734 5731
5788 5788 5787 5787 5786 5786 5784 5784 5782 5782 5780 5779 5779 5778 5776 5775 5774 5772 5771 5769 5767 5765 5763 5761 5760 5758 5757 5755 5753 5752 5750 5748 5746 5743 5741 5739 5736 5733 5731 5728 5725 5722 5719
5775 5776 5776 5776 5775 5774 5773 5772 5771 5770 5769 5768 5767 5766 5765 5764 5763 5761 5759 5757 5755 5752 5751 5750 5748 5747 5745 5744 5742 5740 5738 5736 5734 5731 5729 5726 5724 5721 5718 5715 5713 5710 5707
5763 5764 5764 5764 5763 5762 5761 5761 5759 5759 5758 5757 5756 5755 5753 5752 5751 5749 5747 5745 5743 5740 5739 5738 5737 5735 5734 5732 5730 5728 5726 5724 5722 5719 5717 5714 5711 5708 5705 5703 5700 5697 5695
5751 5751 5752 5751 5750 5749 5749 5748 5747 5747 5746 5746 5745 5744 5742 5740 5739 5737 5736 5734 5732 5730 5728 5727 5725 5723 5722 5720 5718 5716 5714 5712 5710 5707 5704 5702 5699 5696 5693 5690 5687 5685 5682
5737 5738 5738 5738 5738 5737 5737 5736 5734 5734 5734 5733 5733 5732 5731 5729 5728 5726 5725 5723 5721 5719 5717 5716 5714 5712 5710 5708 5706 5704 5702 5699 5697 5694 5691 5689 5686 5683 5681 5678 5675 5673 5670
5725 5725 5725 5725 5725 5724 5724 5724 5723 5722 5722 5721 5721 5720 5719 5717 5716 5715 5713 5712 5710 5708 5707 5705 5703 5700 5698 5696 5693 5691 5689 5686 5684 5681 5679 5676 5673 5670 5668 5665 5663 5660 5658
5714 5714 5713 5712 5712 5712 5712 5711 5710 5710 5710 5710 5709 5708 5707 5705 5704 5703 5702 5700 5699 5697 5695 5693 5691 5688 5686 5683 5681 5678 5676 5674 5671 5668 5665 5663 5660 5658 5656 5653 5650 5648 5645
5702 5701 5701 5701 5700 5700 5700 5699 5699 5699 5698 5698 5697 5696 5695 5694 5693 5692 5691 5689 5687 5686 5684 5681 5679 5677 5674 5671 5669 5667 5664 5661 5659 5656 5653 5651 5648 5646 5643 5641 5638 5636 5633
5691 5691 5690 5690 5690 5689 5689 5689 5688 5688 5687 5686 5686 5685 5684 5683 5682 5681 5679 5678 5676 5674 5672 5670 5668 5665 5663 5660 5657 5654 5651 5649 5646 5644 5641 5639 5636 5634 5632 5629 5626 5623 5621
5681 5681 5680 5680 5679 5679 5678 5678 5678 5677 5677 5676 5675 5674 5673 5672 5671 5669 5668 5667 5665 5663 5661 5659 5656 5654 5651 5648 5646 5643 5640 5637 5634 5632 5629 5627 5624 5622 5620 5617 5614 5611 5608
5671 5671 5670 5670 5669 5669 5669 5668 5668 5667 5667 5666 5665 5664 5663 5662 5660 5659 5658 5656 5654 5652 5650 5648 5645 5643 5640 5637 5635 5632 5629 5627 5624 5621 5618 5616 5613 5611 5608 5605 5602 5599 5596